330  
ASUS42 KKEY 280611  
RWRKEY  
 
FLORIDA KEYS REGIONAL WEATHER ROUNDUP  
NATIONAL WEATHER SERVICE KEY WEST FLORIDA  
100 AM EST SUN FEB 28 2021  
   
..FLORIDA KEYS
 
 
 
CITY SKY/WX TMP DP RH WIND PRES REMARKS
 
KEY WEST MOCLDY 78 69 73 E17 30.15S  
BOCA CHICA NAS CLEAR 76 70 82 SE20G26 30.15S  
MARATHON CLEAR 76 69 79 E12G26 30.15R  
   
..SOUTH FLORIDA
 
 
 
CITY SKY/WX TMP DP RH WIND PRES REMARKS
 
HOMESTEAD NOT AVBL  
WEST KENDALL CLEAR 77 66 68 SE13G21 30.19F  
MIAMI PTCLDY 77 66 68 E14 30.20S  
OPA LOCKA CLEAR 75 65 70 SE13 30.21S  
PEMBROKE PINES PTCLDY 76 67 73 E10 30.21F  
FT LAUDERDALE PTCLDY 77 70 79 E13 30.19F  
FT LAUD EXEC PTCLDY 77 69 76 E14 30.20S  
POMPANO BEACH PTCLDY 76 70 82 E13 30.20F  
BOCA RATON NOT AVBL  
WEST PALM BCH PTCLDY 77 67 71 SE16 30.22S  
   
..SOUTHWEST FLORIDA
 
 
 
CITY SKY/WX TMP DP RH WIND PRES REMARKS
 
MARCO ISLAND CLEAR 69 67 93 E7 30.19F  
NAPLES CLEAR 71 65 81 E9 30.18F  
FT MYERS-SW AP CLEAR 70 66 87 E8 30.19F  
FORT MYERS CLEAR 71 68 90 E7 30.18F  
   
..ADJACENT COASTAL WATERS
 
 
 
STATION/POSITION TIME SKY/WX TEMP WIND PRES WAVE
 
AIR SEA DIR/SP/G HT/PER  
(UTC) (F) (DEG/KT/KT) (MB) (FT/S)  
PULASKI SHOAL LT NOT AVBL  
SAND KEY 0600 77 110/ 19/ 22 1021.2  
SOMBRERO KEY 0600 77 100/ 19/ 23 1021.2  
LONG KEY 0600 78 60/ 19/ 23 1020.8  
FOWEY ROCKS 0600 77 76 120/ 21/ 23 1022.3F  
SATAN SHL BUOY 0500 76 76 N/A 8/ 7  
LOOP CURR BUOY 0500 73 120/ 14/ 17 1021.3F  
PULLEY RDG BUOY 0556 73 N/A 3/ 4  
   
..INTERNATIONAL WEATHER
 
 
 
CITY SKY/WX TMP DP RH WIND PRES REMARKS
 
NASSAU PTCLDY 75 66 73 SE12 30.23F  
HAVANA PTCLDY 73 68 83 E8 30.12S  
VARADERO PTCLDY 73 68 83 E10 30.12S  
CANCUN CLEAR 79 70 73 SE18 30.03F  
COZUMEL N/A N/A N/A N/A MISG N/A  
KINGSTON PTCLDY 77 68 73 NW8 30.00F  
 

 
 
 
CLICK HERE TO GO TO PREVIOUS BULLETINS.

The Nexlab FL Page Main Text Page